User: anonymous   Login
Location: Oshawa
(43.9000°N, 78.8670°W)
Time: 06:19:04
(UTC-04:00)
Language:

PAYLOAD A - Orbit

View from above orbital plane
View from above orbital plane
View from above satellite
View from above satellite

Ground track
Ground track

The orbit data is extracted from the following two-line orbital elements,

1 27840U 03031A   18113.93231472 -.00000007 +00000-0 +11518-4 0  9991
2 27840 098.2298 103.4164 0096955 262.5101 096.5064 14.38901605777908
Epoch (UTC): 23 April 2018 22:22:31
Eccentricity: 0.0096955
inclination: 98.2298°
perigee height: 693 km
apogee height: 831 km
right ascension of ascending node: 103.4164°
argument of perigee: 262.5101°
revolutions per day: 14.38901605
mean anomaly at epoch: 96.5064°
orbit number at epoch: 77790

The dashed part of the orbit path shows where the satellite is in the earth's shadow,  

DLR